Terminal Aerodrome Forecast
Issued by NWS Denver/Boulder, CO

Home | Current Version | Previous Version | Text Only | Print | Product List | Glossary On
Versions: 1 2 3 4 5 6 7 8 9 10 11 12 13 14 15 16 17 18 19 20 21 22 23 24 25 26 27 28 29 30 31 32 33 34 35 36 37 38 39 40 41 42 43 44 45 46 47 48 49 50
000
FTUS45 KBOU 010530
TAFDEN
TAF
KDEN 010530Z 0106/0212 17011KT P6SM FEW140
     FM010700 20011KT P6SM FEW140 SCT220
     FM011400 24006KT P6SM FEW200
     FM011700 VRB05KT P6SM FEW100 SCT200
     FM012000 11011KT P6SM SCT090 BKN150
     FM020200 15009KT P6SM FEW090 SCT150
     FM020600 20010KT P6SM FEW140=

USA.gov is the U.S. government's official web portal to all federal, state and local government web resources and services.